URSS

Sochi International

Airport
ICAO code
URSS
Summary
ICAO Region
APAC
ICAO Territory
Location

Sochi, Krasnodar Krai,

Coordinates
43° 26' 39" N , 39° 56' 36" E
KCC
Metar
URSS 251800Z 04001MPS 9999 NSC 24/19 Q1003 R02/010070 R06/010070 NOSIG RMK R06/34002MPS QFE751

Description

Airport located in Adler District of the resort city of Sochi situated at the Black Sea coast in Krasnodar Krai, Russia.

Climatology

Humid “subtropical” climate (Köppen climate classification Cfa) - characterized by hot, humid summers and cool winters. Significant amounts of precipitation occur in all seasons in most areas. Winter rainfall (and sometimes snowfall) is associated with large storms that the westerlies steer from west to east. Most summer rainfall occurs during thunderstorms.

Runways

Designator Length Width Surface Rops
2/20 2200 49 CON Yes/Yes
6/24 2890 50 CON Yes/Yes

Airport map

Aerial View

SKYbrary Partners:

Safety knowledge contributed by: